Wind_Speed
9 9 11 11 11 11 10 9 8 8 6 4 4 3 4 4 4 4 5 5 6 7 7 13 7 4 8 7 11 13 12 12 10 9 8 8 10 11 12 12 13 12 9 9 9 8 7 7 7 6 5 5 6 7 9 10 10 10 10 10 10 10 10 9 8 8 8 8 8 8 8 8 9 9 9 9 8 8 8 7 8 9 10 11 12
8 9 10 10 10 11 9 8 7 9 8 7 5 4 5 4 5 5 6 5 3 3 4 13 10 7 8 8 12 13 11 11 10 10 10 9 10 12 12 11 12 12 10 9 8 7 7 7 7 7 6 4 5 6 6 8 10 10 9 9 9 9 9 9 9 8 7 7 7 7 7 7 7 7 8 8 7 8 8 8 8 8 9 10 12
6 8 9 8 9 10 10 8 6 8 8 7 6 5 5 5 5 4 5 4 1 2 2 12 13 10 10 10 11 12 12 11 10 11 10 10 11 12 11 10 10 9 9 9 10 8 7 7 6 7 7 5 4 4 4 6 7 7 7 7 7 7 7 7 7 8 6 5 6 6 7 7 6 6 6 6 6 6 7 8 7 8 9 10 11
5 7 8 7 8 8 8 7 5 7 7 6 6 5 5 5 4 2 1 1 2 3 4 12 13 10 10 11 12 13 13 12 11 11 11 11 11 11 11 10 9 7 7 8 10 10 9 8 6 7 8 6 5 4 4 5 6 6 7 7 7 7 6 5 5 6 6 5 4 5 6 6 6 5 5 5 5 5 6 7 7 7 8 8 9
6 6 7 6 7 6 6 6 4 5 6 6 5 4 4 5 5 3 4 4 5 4 5 10 10 8 10 11 12 12 12 13 12 10 11 12 12 12 12 10 9 7 6 6 8 10 10 10 9 8 8 7 5 4 6 5 5 5 6 7 7 7 7 6 4 4 5 5 3 3 4 4 5 5 5 5 5 4 4 5 6 6 6 6 6
7 6 7 7 7 6 5 4 3 3 3 5 4 3 3 3 4 5 6 6 7 5 5 11 11 9 10 10 11 11 12 13 11 9 10 10 12 14 13 9 8 9 7 7 8 8 8 9 8 8 8 8 6 4 5 6 4 2 3 4 5 6 6 6 5 5 5 5 4 3 3 3 3 5 5 5 5 4 3 3 4 5 5 4 4
7 6 7 7 7 6 4 3 3 3 3 4 4 3 3 5 7 7 7 9 10 8 8 13 13 11 11 11 12 12 12 12 10 10 10 10 11 14 11 5 7 11 9 8 9 8 7 6 6 6 7 8 8 5 4 4 3 1 2 2 3 3 3 4 4 5 5 4 4 4 3 2 2 3 4 4 4 4 3 2 2 3 3 3 4
8 7 7 7 8 6 5 4 4 4 5 6 6 5 5 8 8 7 11 14 13 11 12 14 14 13 13 12 12 10 9 9 8 7 8 10 13 13 8 4 7 11 11 10 10 9 8 7 6 6 6 6 7 6 5 4 3 1 1 2 3 2 2 3 3 4 4 3 3 4 4 4 3 3 3 4 4 2 2 2 2 2 2 3 3
8 8 8 8 8 7 6 6 5 5 6 7 6 6 7 8 8 8 12 16 16 15 14 14 14 14 14 13 12 10 8 8 7 6 7 11 13 10 7 6 7 9 10 9 9 9 9 8 7 6 6 6 6 5 4 3 2 2 2 1 1 1 1 2 2 4 5 4 2 2 3 4 4 3 2 4 5 2 1 0 1 1 1 1 3
8 9 9 9 9 8 8 7 6 6 6 6 6 7 7 8 10 10 11 15 18 17 14 13 14 15 14 14 12 11 9 7 6 5 6 9 11 6 5 6 6 7 8 8 8 7 8 8 7 6 6 6 5 5 3 2 2 2 1 1 1 1 1 2 3 3 4 3 3 2 3 4 4 3 2 3 5 4 3 1 1 0 1 1 2
8 8 9 11 11 9 8 7 6 7 7 7 7 8 9 10 12 12 12 14 15 15 14 14 15 15 13 12 11 10 8 6 4 5 6 8 8 5 3 5 5 5 5 6 6 7 8 7 6 6 6 5 3 3 4 3 2 2 2 1 2 2 2 3 4 4 5 4 3 3 3 4 4 4 2 2 4 5 5 2 1 1 1 1 2
8 9 10 10 10 8 8 7 6 8 8 8 8 9 11 12 12 12 13 14 13 13 14 14 15 14 12 12 10 9 8 6 6 7 8 7 6 5 4 6 7 6 5 6 6 6 7 7 7 7 6 4 1 1 2 3 2 2 2 2 2 2 2 3 4 5 5 6 5 5 5 3 3 4 4 3 3 4 5 4 3 1 1 1 1
8 8 7 8 8 7 7 7 7 9 8 8 9 9 10 11 11 12 13 14 15 13 13 15 15 13 11 11 10 9 7 7 8 8 8 7 7 7 7 8 9 7 6 7 7 6 7 8 8 8 6 4 3 3 3 2 1 0 2 3 2 3 3 3 3 4 5 7 7 6 7 6 5 4 4 4 4 4 5 5 4 2 1 3 2
7 7 6 6 8 7 8 8 8 10 9 8 10 10 11 12 12 13 13 14 15 15 15 13 11 11 11 9 8 7 6 7 7 7 8 9 7 8 9 9 10 9 7 8 7 7 9 9 8 8 7 5 4 4 4 3 3 3 5 5 4 4 4 4 4 4 4 6 6 6 6 7 7 6 5 5 5 5 5 5 6 5 4 4 4
8 7 7 7 7 7 9 9 9 10 10 9 10 10 12 13 13 13 14 15 14 16 16 11 10 13 11 6 3 3 4 5 5 5 7 8 8 9 9 10 12 10 8 8 7 6 8 7 7 8 8 7 6 4 4 4 5 6 7 6 6 5 5 5 5 5 5 5 5 5 6 7 7 7 7 6 5 5 6 7 7 6 5 5 5
7 7 8 7 7 7 8 9 9 9 9 9 11 10 11 13 13 12 13 15 13 14 14 11 13 14 7 3 2 3 2 0 3 4 3 5 8 10 12 12 13 11 9 9 8 7 7 7 9 11 11 10 7 4 4 6 6 7 7 7 7 7 6 6 6 6 5 4 5 5 6 6 6 5 6 6 6 5 6 8 8 7 6 5 6
7 7 7 7 7 7 8 8 8 9 9 10 11 11 11 12 12 11 11 14 13 13 13 11 13 12 7 5 3 2 1 4 4 5 6 9 10 11 15 15 12 12 12 12 11 10 11 13 13 14 12 10 7 5 6 6 7 7 8 9 10 10 9 10 9 8 7 6 5 5 5 5 5 5 4 4 6 6 6 7 7 7 8 7 7
11 10 10 9 8 7 7 7 7 8 9 11 12 11 12 12 11 11 11 12 12 12 13 13 14 11 8 7 2 2 8 7 4 5 11 15 16 16 18 16 13 13 13 13 13 13 15 16 16 14 12 9 8 8 8 8 9 10 10 11 12 12 12 13 12 11 11 9 9 8 7 8 9 8 7 6 6 7 6 7 8 9 10 9 8
10 11 12 10 9 7 5 5 6 7 8 11 12 10 11 11 9 10 10 12 12 12 14 14 14 11 8 6 3 7 15 11 5 4 6 9 15 20 19 16 15 14 13 12 13 14 16 17 15 13 10 8 8 10 10 10 11 12 13 14 13 14 14 14 14 13 13 12 13 13 12 13 14 12 10 8 7 7 6 6 7 8 11 12 11
8 9 10 10 8 6 4 3 3 6 8 10 10 9 11 10 9 8 9 11 12 12 14 13 13 12 9 8 7 10 16 12 9 9 5 3 7 13 16 15 14 14 13 11 12 16 17 15 14 12 9 8 8 9 10 11 13 14 15 16 16 16 15 15 14 13 14 14 15 15 14 15 16 14 12 12 12 12 10 9 8 6 7 10 10
7 8 9 9 9 8 8 6 2 6 9 9 8 8 11 11 10 10 8 9 10 10 11 12 12 12 11 11 11 12 13 11 12 12 9 5 3 4 10 13 11 12 13 12 12 16 17 14 12 10 8 8 8 9 11 13 15 17 17 18 18 18 18 18 17 16 16 16 17 17 16 16 17 16 15 15 16 16 15 13 10 8 4 4 6
8 9 10 10 9 8 9 9 7 7 10 9 8 8 10 12 12 11 9 9 10 8 9 11 11 12 14 16 15 14 12 9 10 11 11 9 5 4 9 11 9 10 13 15 16 16 15 12 9 9 9 10 10 10 12 15 16 17 17 18 18 19 19 19 19 19 18 18 19 19 18 18 18 17 17 17 17 17 17 16 14 13 12 9 8
8 8 9 10 9 7 7 9 10 11 11 10 8 8 10 12 12 12 12 12 11 9 9 10 11 12 14 17 18 19 16 11 14 14 11 10 7 5 9 12 10 10 12 16 18 15 13 11 8 8 9 11 12 12 13 16 17 17 17 17 18 19 20 20 20 20 20 19 19 20 20 20 19 19 19 18 18 17 17 16 16 16 16 14 13
7 7 7 8 9 8 9 10 11 11 11 9 7 7 8 11 13 13 12 12 11 11 10 10 11 13 15 15 16 18 17 15 17 17 16 19 16 9 11 12 9 9 12 16 17 15 13 10 8 8 9 11 12 13 13 15 17 17 16 16 17 18 19 19 19 19 19 19 19 19 19 19 19 19 19 19 18 18 18 17 17 16 16 15 14
10 8 8 8 8 9 10 11 11 10 8 7 9 10 11 12 14 13 12 13 13 13 13 11 10 12 13 13 12 13 12 10 14 17 20 25 22 14 13 13 10 11 14 18 18 14 12 10 9 7 8 10 12 13 13 14 16 17 16 15 16 17 18 19 19 19 18 18 18 18 18 18 18 18 18 17 17 17 17 16 17 16 16 16 14
12 10 10 9 9 10 9 10 11 11 8 8 10 12 12 12 13 14 14 15 15 14 13 12 11 11 12 11 10 9 7 6 11 17 20 25 24 18 14 10 11 12 13 16 18 15 12 12 9 7 7 9 11 12 12 12 14 16 16 16 15 17 19 20 20 20 20 19 19 19 19 18 18 17 17 16 16 16 16 15 15 15 15 15 14
13 12 12 12 12 11 10 10 11 10 9 12 14 15 14 15 16 16 16 15 15 15 14 14 15 15 15 15 13 11 10 10 10 13 20 27 27 25 21 11 5 6 7 10 14 15 15 13 7 5 7 9 9 10 11 10 12 14 15 15 15 16 18 19 19 20 20 20 20 20 20 20 19 19 18 17 17 17 16 16 15 15 14 14 13
13 11 11 11 11 12 12 11 10 10 11 15 17 17 17 18 18 17 16 15 15 16 16 16 16 16 16 15 15 15 13 15 17 15 19 26 24 24 26 20 9 3 3 5 7 10 15 14 8 4 6 8 7 7 9 9 11 12 13 13 13 14 15 16 17 17 18 18 19 20 21 21 20 20 19 18 18 18 18 17 16 16 16 15 14
10 9 9 10 11 12 12 10 10 11 14 17 18 17 16 16 17 17 16 16 17 17 15 15 15 15 14 14 15 16 16 18 20 19 19 19 16 14 17 25 21 9 3 3 3 6 10 11 9 7 5 6 6 6 6 8 9 10 10 11 10 11 13 14 14 15 15 16 16 18 20 21 20 21 19 18 18 18 18 18 17 17 16 16 15
11 10 10 11 12 12 11 10 11 12 13 15 16 15 15 16 17 16 16 16 17 16 14 14 15 14 13 13 14 15 16 17 18 18 18 16 17 16 12 20 26 18 11 6 2 5 10 10 9 10 8 6 5 5 5 6 7 8 8 8 8 8 10 11 12 12 12 12 13 15 18 19 21 22 18 16 18 19 18 18 18 17 17 16 16
13 12 12 12 12 12 12 11 12 12 12 14 15 14 15 17 17 17 16 17 17 16 16 15 15 14 13 12 13 14 14 15 15 17 16 14 13 14 13 13 21 22 21 14 4 4 10 11 10 10 9 8 6 5 5 4 5 6 5 5 5 5 7 9 9 10 10 11 12 14 16 16 19 21 18 16 19 20 20 20 19 18 17 17 17
12 12 12 12 12 13 12 12 13 13 12 13 13 13 15 17 17 17 17 17 17 18 17 15 15 15 15 15 14 14 13 14 15 16 16 14 12 12 13 14 17 21 21 18 10 6 9 11 11 10 9 8 7 3 4 4 3 3 3 3 3 3 4 6 8 9 10 12 13 14 15 16 17 19 18 17 19 21 21 21 20 19 17 17 19
13 13 12 12 13 13 12 13 14 13 12 12 13 14 16 16 16 17 18 18 19 19 17 16 17 17 16 16 15 14 13 13 13 12 12 11 10 12 15 16 17 15 15 18 16 10 9 10 10 10 8 6 8 5 2 3 2 1 2 4 4 3 4 5 8 9 9 11 13 15 16 16 16 16 17 17 18 20 21 21 19 18 17 17 19
13 12 12 12 12 12 13 14 13 13 13 13 14 15 16 17 17 17 18 18 18 18 17 16 15 15 15 16 15 13 12 12 11 9 9 7 7 10 15 16 16 13 13 17 18 13 10 11 10 9 7 7 8 7 2 2 3 2 2 5 7 5 3 5 9 10 10 11 14 16 17 17 15 14 15 17 18 19 21 22 21 18 16 15 18
13 12 12 11 12 13 13 13 13 14 14 13 14 16 15 15 16 17 17 17 16 17 17 16 14 13 13 14 13 11 10 10 10 10 10 9 7 10 14 13 13 13 12 13 14 13 13 12 10 9 7 7 7 7 5 2 2 2 2 2 3 2 3 7 10 11 11 12 15 17 18 17 13 12 14 17 19 20 22 24 24 21 18 15 15
13 12 11 10 12 14 14 13 14 14 13 12 15 16 13 12 16 19 18 16 15 15 16 15 13 11 10 11 10 10 9 9 9 8 8 8 8 9 11 9 9 10 11 11 10 10 12 13 12 12 9 6 6 7 8 5 2 1 1 4 6 6 8 8 9 10 11 13 14 15 17 15 12 12 16 18 20 21 23 27 26 24 21 17 14
12 11 11 9 11 14 13 13 14 14 12 12 14 15 12 12 16 20 18 16 14 13 14 13 11 10 8 8 8 8 8 8 8 6 5 5 7 8 7 7 6 8 10 11 10 9 10 12 12 13 11 7 6 6 8 6 4 4 3 4 7 5 5 5 6 8 11 13 13 13 14 13 12 14 17 20 22 25 28 29 25 22 21 17 14
9 9 12 10 10 12 13 14 15 14 12 12 13 15 13 11 14 16 16 15 13 11 12 12 11 9 8 7 6 6 8 8 7 6 5 5 6 8 8 7 8 8 8 8 7 8 8 10 12 13 12 9 6 5 7 6 5 7 7 6 4 1 2 3 4 6 10 10 9 10 12 12 11 14 18 23 27 30 29 24 20 19 18 16 15
9 10 11 11 11 11 12 13 14 14 13 12 12 14 13 12 13 14 15 15 11 10 12 12 10 10 10 9 8 6 7 8 7 6 6 6 5 5 7 8 8 8 7 5 5 5 6 8 11 11 10 8 6 5 6 6 5 7 8 4 2 2 4 5 6 7 8 6 6 9 11 11 12 16 22 26 27 25 21 18 18 19 18 17 17
11 13 11 11 12 12 12 13 12 12 13 13 13 14 13 13 13 13 14 14 12 12 12 12 12 12 11 12 11 10 9 10 8 7 6 6 5 3 4 6 7 7 5 4 4 3 3 3 5 6 6 7 8 9 10 8 7 7 6 6 4 3 4 5 6 8 7 7 9 11 13 16 19 22 23 22 19 17 16 17 18 18 18 18 18
12 15 13 11 13 13 12 13 13 13 13 13 14 15 14 15 15 14 14 15 14 13 13 13 14 15 14 14 14 13 12 12 11 9 8 7 7 6 4 4 5 5 4 4 5 3 2 2 2 2 4 5 5 9 11 10 8 6 5 4 3 3 5 6 6 7 8 10 13 16 19 21 21 20 19 18 17 16 15 15 16 18 20 21 21
9 15 14 12 13 13 13 13 14 16 15 14 15 16 15 15 16 16 15 16 17 16 17 17 16 17 17 16 16 15 13 14 13 12 11 10 9 9 8 7 6 6 6 6 7 6 5 4 2 3 3 2 2 3 6 5 5 5 4 2 2 2 4 7 8 8 9 13 16 20 24 21 18 18 19 19 19 18 15 14 16 19 20 19 19
4 9 11 11 11 11 11 12 13 16 18 17 17 17 16 16 17 18 18 19 19 19 20 20 19 19 19 17 17 17 15 15 15 14 14 13 13 13 12 11 10 10 10 9 9 9 8 7 4 2 1 3 4 5 6 7 6 5 3 2 2 4 5 6 7 9 12 15 17 20 21 18 17 18 19 18 19 19 16 15 16 17 17 17 18
6 6 7 8 9 9 10 11 11 11 15 19 20 20 18 18 19 21 21 22 22 21 21 21 21 20 20 19 18 18 17 17 17 16 16 16 15 15 15 15 15 15 14 12 11 10 10 10 7 4 4 5 7 8 8 7 5 3 2 3 4 5 6 7 8 12 15 16 17 19 20 17 17 17 16 16 16 15 14 13 13 16 18 20 21
10 11 10 10 10 10 11 12 12 12 13 15 19 21 21 22 23 24 24 24 24 24 24 23 23 22 22 21 20 19 19 18 18 18 18 17 16 15 14 14 15 14 14 14 13 11 10 10 8 6 6 6 6 6 5 4 2 1 3 5 6 7 8 9 11 14 16 15 16 18 18 16 15 14 13 14 13 13 13 14 16 19 20 20 21
11 12 13 13 13 12 11 10 11 13 13 12 16 19 20 22 23 24 25 25 25 26 26 27 26 24 24 24 23 22 21 20 18 17 17 17 16 13 12 12 12 12 12 13 13 12 11 10 8 6 6 6 5 5 3 2 3 5 5 7 8 9 9 10 11 13 13 12 14 15 13 12 14 13 14 15 16 17 18 20 21 20 19 18 19
9 10 11 13 14 15 14 13 12 13 13 12 14 17 20 21 21 22 25 26 26 26 26 25 24 22 21 22 22 22 21 20 19 17 17 17 16 13 12 11 11 10 10 10 10 11 11 11 9 8 6 6 6 5 3 4 6 7 7 9 9 9 9 9 10 12 11 10 12 14 12 13 15 15 17 19 21 21 22 22 21 19 18 18 18
9 10 11 12 13 14 16 16 17 17 17 16 16 17 20 21 20 21 24 26 27 27 25 24 23 22 21 20 21 22 21 19 19 18 17 16 15 14 13 12 11 9 8 7 7 7 8 8 7 7 7 7 5 3 3 5 7 8 8 8 7 7 8 9 10 12 13 13 14 14 13 14 15 17 20 21 22 23 23 21 18 17 17 17 18
11 12 13 14 14 14 15 16 18 20 21 20 21 21 21 22 23 23 24 27 28 28 26 25 24 24 24 23 23 22 20 19 17 15 15 17 16 15 14 13 11 9 7 6 7 7 7 7 7 7 7 5 2 3 5 6 7 6 6 5 4 6 8 9 10 12 14 14 12 11 12 14 15 19 20 21 21 21 18 15 14 14 15 18 20
15 15 16 17 17 17 17 17 18 20 21 21 22 23 23 24 25 25 26 28 29 28 27 26 25 23 23 22 22 21 21 21 18 16 18 20 18 16 15 14 12 10 9 9 10 10 9 8 7 6 4 3 3 4 5 5 5 4 4 4 4 6 7 8 10 12 13 11 9 12 15 15 16 18 18 18 18 14 10 11 14 17 20 22 24
18 18 18 19 20 19 19 20 20 19 20 20 20 21 22 23 24 25 26 29 29 28 27 28 27 24 22 23 22 22 24 25 22 21 24 24 20 18 17 15 14 12 11 11 10 10 9 7 6 4 2 1 2 3 4 4 4 4 5 5 5 5 5 6 9 10 8 6 9 15 17 14 15 16 15 14 11 8 10 15 19 22 24 24 23
Wind_Direction
178 176 178 182 181 179 181 182 186 199 212 210 210 234 230 232 258 269 278 284 286 283 212 183 178 159 180 169 142 146 142 133 127 122 126 138 144 147 144 140 135 129 126 126 128 127 123 120 112 116 126 105 87 85 92 91 89 90 85 84 81 77 74 72 76 76 75 78 81 79 77 79 81 87 92 92 87 82 81 80 77 79 85 90 89
189 183 183 190 193 195 203 204 198 202 219 229 229 249 238 240 264 275 296 290 265 298 187 172 169 138 146 158 153 152 143 137 134 124 123 134 143 146 143 142 139 136 135 134 136 135 130 127 113 115 125 118 101 85 88 88 80 80 76 73 72 70 68 66 68 68 68 74 81 83 79 82 81 81 86 88 87 81 78 77 72 72 80 92 93
197 195 194 198 199 205 214 216 210 209 221 230 230 241 241 259 279 287 315 302 209 7 121 152 153 137 133 142 149 158 156 151 145 127 119 128 138 142 139 137 140 142 146 152 153 142 135 135 110 109 121 127 119 82 87 97 80 71 64 62 62 61 61 58 61 61 65 74 81 84 81 86 85 80 81 84 90 89 87 84 74 67 74 91 94
201 206 201 194 197 203 201 202 203 209 216 219 218 224 231 243 259 262 93 201 65 58 148 139 133 128 135 149 151 154 154 155 151 132 123 127 130 133 132 129 132 142 151 160 163 151 139 136 123 118 120 125 127 83 93 106 83 72 63 61 61 56 54 51 54 48 53 77 90 88 82 83 82 78 77 77 86 96 99 96 86 73 72 83 91
205 208 201 186 195 192 179 189 195 200 209 209 202 197 209 216 229 212 153 151 82 82 153 131 125 128 132 151 156 152 152 155 153 142 134 128 125 126 125 123 128 143 145 141 156 155 145 140 139 139 129 130 129 91 103 110 85 79 72 67 61 56 53 49 50 34 34 56 75 94 86 77 75 74 74 75 82 94 106 107 101 89 79 79 88
206 202 199 194 201 187 170 197 220 209 207 207 195 164 171 180 191 174 144 126 105 122 145 119 123 132 126 135 142 142 148 154 155 151 147 136 128 125 120 121 132 144 146 136 143 151 152 149 146 145 141 139 134 106 114 124 117 91 68 65 54 50 53 52 52 42 37 38 41 78 80 58 70 76 75 72 77 91 103 109 110 104 98 85 82
209 205 205 203 204 197 188 221 241 216 199 197 187 166 148 128 141 149 120 109 119 131 122 116 122 125 125 130 131 135 138 145 152 149 153 154 137 125 120 130 147 145 146 146 145 146 151 155 153 152 149 146 143 138 135 138 145 117 20 10 5 13 32 46 52 46 51 43 33 54 61 46 46 60 75 69 73 91 90 98 119 112 111 99 84
215 216 215 210 205 204 204 216 224 207 197 191 178 167 152 134 132 132 121 121 130 130 116 123 130 124 127 131 130 133 127 130 143 141 149 150 132 128 140 161 154 149 149 149 147 145 150 155 156 160 163 162 157 153 154 157 162 183 232 290 315 321 336 8 30 30 37 46 44 51 53 52 37 34 58 48 53 86 84 91 126 127 125 118 105
219 219 216 218 216 215 216 214 213 202 195 187 167 152 149 146 142 140 134 130 132 129 119 125 134 130 131 132 128 128 121 124 140 144 145 138 127 138 178 181 163 164 160 154 152 148 151 158 159 161 167 173 171 163 163 172 182 195 195 219 282 276 282 310 345 5 11 19 27 37 37 37 34 36 37 19 24 38 5 69 102 128 166 143 137
214 210 210 221 221 220 226 222 209 195 189 181 162 145 145 155 152 146 140 134 133 132 131 134 134 130 131 131 129 125 121 124 136 139 129 129 128 137 182 175 161 166 164 165 168 164 156 156 160 168 177 184 183 176 174 190 201 216 233 206 226 235 239 265 284 308 329 351 356 353 5 10 12 16 10 353 2 10 1 280 227 195 219 198 184
205 198 204 219 218 216 219 218 208 193 187 180 166 150 145 150 149 145 139 135 135 136 145 146 132 129 132 129 126 123 121 117 117 113 104 120 124 105 130 144 133 144 165 179 181 183 177 164 164 175 178 182 191 197 204 225 224 231 273 261 249 244 229 246 262 275 279 289 307 313 333 354 354 344 341 339 342 350 359 353 272 253 246 224 215
194 191 199 208 206 204 205 207 201 186 184 180 167 153 149 148 146 148 146 139 136 139 154 152 130 123 123 120 122 120 115 115 119 113 105 121 120 91 103 119 116 126 147 166 168 173 178 172 175 179 162 142 133 178 202 223 229 245 278 280 285 282 262 257 257 261 263 263 267 267 274 304 338 336 329 328 329 327 335 347 340 277 250 292 274
188 182 188 196 191 187 189 196 190 177 181 181 168 160 156 153 148 151 153 148 141 141 155 151 132 121 115 110 113 114 111 113 118 113 115 132 128 111 112 113 112 111 118 145 154 150 157 164 174 172 145 115 105 104 104 107 120 296 310 309 310 307 302 301 289 279 262 253 254 253 254 262 280 301 310 307 304 310 317 323 324 323 314 309 302
174 171 168 177 184 180 175 181 178 173 184 185 170 169 167 161 159 160 164 160 149 145 151 149 138 133 125 108 94 98 105 104 111 126 138 146 142 126 118 115 115 105 106 127 131 130 147 159 165 161 141 118 104 98 96 85 66 24 357 351 344 333 321 325 336 325 292 266 255 246 247 254 260 268 280 288 284 291 302 305 303 304 312 312 315
163 166 162 164 176 175 174 184 185 180 188 184 173 178 175 170 174 175 170 163 154 153 158 157 147 139 127 111 93 88 80 78 100 134 150 152 156 146 126 115 117 112 110 111 108 127 152 157 151 148 138 118 108 103 91 74 52 28 17 17 10 4 351 344 350 346 332 310 285 263 257 252 245 250 259 265 264 267 275 287 296 299 307 311 311
148 150 146 148 157 157 164 180 188 189 193 182 173 176 173 171 178 184 178 166 156 161 171 167 155 150 129 100 110 91 68 86 126 113 142 157 153 154 144 127 121 119 112 102 95 109 130 130 124 128 127 118 113 95 55 46 36 29 28 31 29 24 21 22 21 11 6 349 326 314 298 281 265 260 258 256 258 253 257 270 280 286 291 300 306
108 119 124 133 142 141 149 163 176 186 188 179 173 172 173 178 180 184 188 178 164 166 177 174 164 159 141 124 103 74 191 201 151 71 74 112 114 133 149 142 129 123 114 105 98 93 103 113 113 114 116 112 100 70 47 41 39 42 41 40 39 40 42 45 44 35 34 33 21 12 353 342 342 330 320 297 283 275 260 259 266 272 276 279 287
88 93 103 112 116 113 127 148 163 175 179 178 177 174 177 186 190 190 195 188 175 169 176 179 173 163 144 136 115 165 173 165 145 70 73 88 88 104 135 140 131 129 119 107 103 98 100 105 105 107 106 97 81 63 56 54 50 50 49 48 46 47 49 50 52 49 44 46 52 50 37 34 36 21 4 348 317 298 275 261 258 257 260 267 272
88 89 95 96 93 91 100 121 144 159 166 176 184 182 180 190 201 201 197 190 185 177 176 177 173 171 166 150 115 154 164 156 147 140 86 77 82 94 114 125 123 127 124 112 107 105 104 105 109 114 105 81 55 48 54 58 58 59 58 56 54 54 55 54 56 55 49 46 48 51 47 43 45 41 30 16 2 351 325 295 280 259 250 254 259
99 98 100 97 93 86 78 83 136 159 149 156 175 175 172 181 190 196 192 184 184 179 177 180 175 175 178 158 131 148 163 162 145 137 123 81 82 91 103 110 111 116 122 125 121 114 113 116 119 118 99 68 44 49 66 71 71 70 65 64 64 63 65 65 64 63 59 55 52 53 51 47 49 51 46 36 30 24 11 352 335 309 264 255 255
111 116 119 116 114 101 88 76 94 176 158 143 152 162 169 173 173 183 190 180 184 184 177 179 177 175 173 155 140 146 154 155 147 136 128 128 111 102 113 110 110 117 121 132 137 125 121 124 123 114 88 66 65 73 79 78 76 73 69 67 67 67 68 69 69 67 65 64 64 63 60 57 56 55 51 45 42 39 33 26 12 1 349 303 291
108 115 121 118 121 118 101 85 88 147 162 151 144 151 171 179 172 170 177 177 182 184 165 164 173 174 167 155 151 153 146 148 159 146 130 128 130 143 137 130 136 136 124 129 141 139 131 130 122 105 82 70 75 80 80 78 74 71 70 68 67 66 66 65 66 66 64 64 65 65 62 60 58 55 53 50 47 44 41 40 35 31 32 24 6
111 108 117 110 104 114 114 98 95 116 139 148 144 142 160 174 165 152 161 170 172 171 153 151 166 171 165 161 165 166 161 167 176 164 142 136 136 141 149 150 156 161 141 127 137 145 137 129 113 89 74 68 71 76 78 77 72 69 68 67 66 64 62 61 60 60 60 59 59 59 57 55 54 51 50 48 47 45 43 42 42 41 40 37 33
126 104 109 110 104 111 116 111 106 113 125 134 139 140 147 157 152 143 152 160 157 157 150 145 157 162 164 169 173 175 174 177 179 171 158 154 151 151 164 162 157 171 158 133 131 137 133 122 107 88 72 64 66 69 74 77 72 67 64 64 63 62 60 59 56 55 55 54 53 52 51 48 46 44 42 41 40 39 38 37 36 38 38 38 37
129 117 114 117 116 120 119 112 109 111 118 132 139 140 138 141 147 149 152 149 144 146 145 142 148 154 162 169 171 177 181 186 189 179 162 158 155 153 164 161 144 145 143 133 129 128 128 127 113 93 70 64 67 66 71 77 70 62 59 58 60 61 61 58 55 53 51 49 49 47 45 43 40 37 33 31 29 28 27 26 26 27 27 28 29
127 129 128 122 116 120 124 118 114 109 112 134 143 144 144 141 144 147 144 143 139 136 133 131 135 139 147 149 146 152 142 138 184 185 168 161 158 154 158 156 146 143 133 132 133 127 128 127 109 83 65 67 71 66 67 74 69 60 53 52 60 65 62 60 56 53 50 48 47 45 43 41 38 35 31 28 24 21 19 16 15 14 12 12 13
129 132 130 126 119 117 122 126 125 117 117 131 132 133 137 133 134 136 137 139 135 129 125 123 125 124 124 124 120 115 97 97 137 172 171 166 162 159 157 147 136 144 130 131 133 129 132 130 109 81 79 81 79 66 61 66 68 63 53 51 65 69 61 57 55 51 48 46 44 42 40 38 36 34 32 29 27 24 21 17 13 10 7 4 1
133 135 135 134 129 125 125 131 132 121 123 133 130 128 132 131 133 135 136 139 133 125 122 119 121 120 117 118 114 104 96 101 111 124 146 157 160 162 162 158 148 131 118 117 115 126 136 134 124 111 94 90 89 74 56 52 61 64 57 53 63 66 57 53 51 47 44 41 39 37 32 30 29 26 24 23 22 21 18 16 13 10 8 6 2
138 141 142 141 140 138 134 133 133 121 121 132 133 134 138 139 140 140 138 141 135 126 122 118 122 125 120 118 114 106 102 104 105 103 110 121 123 126 154 163 157 144 126 117 96 124 139 140 140 146 125 95 93 92 62 44 52 65 61 54 58 61 55 50 47 44 40 36 35 31 24 23 23 18 14 13 13 12 9 6 6 5 5 4 3
136 138 140 142 143 143 140 136 135 127 124 133 136 136 138 138 139 139 138 138 132 125 123 121 122 125 124 121 116 111 106 102 100 96 93 96 98 90 110 156 159 149 138 133 100 114 127 134 145 149 142 124 112 105 72 47 51 61 60 53 54 57 53 49 46 41 35 32 30 23 17 17 18 15 13 12 13 12 8 3 359 357 358 360 1
142 142 142 142 141 143 145 142 141 137 135 140 142 141 139 136 135 135 135 135 129 122 121 124 126 128 128 125 121 115 109 106 99 95 94 95 100 91 89 135 157 152 139 129 111 118 125 125 134 143 146 147 139 103 66 48 41 46 47 43 46 51 48 44 40 35 30 26 22 14 9 9 14 16 18 18 19 18 14 9 3 356 355 358 360
149 146 145 146 146 149 152 148 145 143 144 148 150 149 144 141 141 142 142 141 134 126 124 126 130 131 126 120 119 116 114 111 103 99 98 97 102 103 96 112 138 145 139 128 120 124 127 127 133 139 145 157 164 127 66 60 41 25 6 351 3 22 32 31 29 25 23 21 15 8 4 2 7 14 15 13 16 17 14 10 7 3 1 1 0
150 148 150 151 151 154 156 153 149 147 149 152 152 151 148 148 150 150 148 144 137 132 127 128 131 129 124 121 120 119 116 113 111 110 105 103 111 119 113 112 122 136 144 137 132 130 129 138 144 140 143 167 180 173 76 49 48 15 308 297 303 320 346 16 22 15 15 17 10 5 1 356 359 9 10 8 10 12 10 5 1 1 1 0 359
152 155 158 156 156 157 154 155 155 153 154 155 155 154 152 153 153 151 149 145 141 139 135 134 137 133 125 121 121 123 118 115 118 111 100 107 127 132 127 121 119 132 147 144 139 138 142 151 152 143 145 166 178 185 211 360 29 38 315 287 280 283 322 17 23 18 15 10 3 2 359 351 354 4 5 4 4 4 3 359 351 348 348 348 352
160 165 165 165 167 162 158 159 159 157 158 159 160 159 157 161 162 156 152 149 146 142 136 134 139 142 135 126 126 128 125 122 118 104 95 102 115 132 135 126 120 127 137 140 138 142 155 162 163 162 158 161 178 200 222 253 341 41 56 358 289 279 39 42 37 32 24 11 3 2 358 350 351 359 0 358 358 356 355 352 345 337 333 333 341
165 169 171 177 179 170 164 163 160 160 162 158 161 162 153 154 161 156 151 149 146 143 141 136 139 149 147 143 142 139 136 134 126 112 106 100 96 121 141 139 130 125 123 135 147 156 167 169 171 182 186 174 179 209 227 225 230 246 82 90 104 90 67 57 43 31 20 10 4 359 355 354 353 355 355 352 350 349 344 341 338 331 326 322 327
170 177 176 181 186 178 170 166 164 164 162 159 163 164 149 138 151 155 153 150 145 149 155 151 151 156 152 149 155 155 153 145 130 119 119 108 90 99 129 145 149 134 123 136 154 165 173 175 177 189 198 187 176 204 222 213 187 201 197 135 130 108 61 54 38 23 13 4 357 346 344 352 355 351 349 345 340 335 330 330 332 330 324 317 318
184 188 180 182 185 179 175 172 171 168 163 163 166 164 158 149 151 155 155 153 152 159 167 165 163 164 158 154 154 160 164 157 146 138 138 140 111 92 106 132 149 147 134 135 145 148 158 166 173 186 194 190 187 202 201 192 180 173 161 143 151 196 336 341 352 10 11 2 348 333 330 340 348 341 334 330 325 322 323 328 333 334 330 322 319
199 189 184 192 190 184 183 178 176 175 170 169 168 166 168 165 160 160 160 162 165 165 163 165 164 162 165 173 170 167 170 165 165 169 158 160 156 109 106 128 144 148 145 146 146 137 135 148 164 181 192 198 220 232 202 184 179 180 188 206 234 265 304 315 321 342 357 351 326 320 323 326 325 320 318 319 320 322 327 332 334 334 334 330 325
213 196 190 200 199 196 196 189 187 189 183 180 181 178 175 171 168 170 172 174 175 170 167 170 172 169 176 185 182 178 179 175 180 198 199 192 194 177 139 140 148 151 156 173 177 151 125 150 173 194 218 229 237 239 232 217 195 191 217 243 255 272 288 305 328 338 338 324 313 313 315 318 319 319 323 327 332 337 335 329 329 334 338 338 334
224 204 195 201 203 203 204 202 200 203 202 198 195 194 191 185 181 181 185 186 183 184 188 188 183 183 189 193 191 187 186 187 191 200 210 218 222 224 224 202 185 182 184 198 202 197 212 238 247 284 286 280 261 241 235 227 209 204 221 234 233 261 284 296 321 336 326 316 314 313 316 324 329 332 338 344 348 346 338 334 335 334 334 333 331
219 203 197 201 207 209 208 210 211 211 214 210 204 204 205 201 194 191 192 193 193 197 199 196 194 195 197 201 203 201 199 199 203 203 206 216 222 227 238 244 240 229 220 219 221 224 241 261 296 335 321 333 348 244 219 195 178 182 182 193 228 315 317 311 320 324 317 318 320 316 320 330 338 339 341 344 345 342 335 332 330 327 327 327 329
211 199 199 203 212 217 214 218 222 220 219 216 212 211 211 207 201 199 200 200 202 207 205 203 204 203 202 205 207 209 209 207 208 211 213 215 218 222 229 233 239 239 231 227 224 224 234 245 255 289 197 135 118 140 154 144 141 143 123 74 11 360 351 342 333 317 315 324 326 318 322 335 338 332 334 339 342 344 342 337 335 337 341 344 343
246 238 229 219 222 235 237 238 243 238 227 219 215 214 212 209 207 208 209 207 208 213 213 212 214 212 208 208 209 211 214 215 215 216 217 218 221 225 228 228 232 235 233 232 230 225 226 225 220 210 177 147 134 138 143 142 142 130 65 18 7 360 353 350 334 319 321 329 328 319 322 335 338 331 335 344 349 353 355 350 348 351 353 351 347
256 259 262 251 238 239 246 251 256 257 249 232 220 215 211 211 213 214 214 214 216 220 221 222 223 219 215 214 213 214 217 221 224 223 224 226 226 227 230 232 235 235 232 232 231 226 217 204 192 182 175 171 165 159 156 154 157 343 343 345 346 340 334 332 324 320 324 332 334 327 326 339 349 345 345 352 350 344 340 337 339 344 347 349 348
265 265 268 265 256 246 245 251 251 249 252 245 232 223 215 213 215 215 217 219 221 224 226 227 226 222 219 219 217 217 219 222 222 222 225 224 222 226 232 231 232 232 231 230 228 225 218 209 204 198 189 193 198 193 194 236 304 327 335 337 334 328 325 324 319 321 326 330 333 334 334 344 350 346 342 341 334 327 326 329 335 340 343 346 350
277 279 278 274 267 257 252 254 255 250 245 241 238 233 226 221 218 217 219 219 219 221 222 223 224 221 218 220 222 223 225 223 218 216 220 221 222 225 225 220 221 226 228 228 227 227 227 226 227 221 204 198 201 204 231 295 319 332 337 332 326 323 325 328 328 333 339 335 329 330 333 337 341 340 336 334 330 326 326 329 334 338 340 344 350
298 293 293 288 280 271 262 258 260 260 255 250 248 243 236 232 230 228 225 223 223 224 224 228 233 232 229 232 236 235 229 221 217 218 222 224 222 214 208 211 218 218 214 211 210 218 223 220 216 207 195 188 190 213 283 317 325 329 329 326 325 334 342 346 347 350 353 347 336 331 329 330 336 337 332 330 328 326 327 332 336 336 336 342 349
329 315 306 300 291 282 274 268 265 263 260 257 256 254 249 244 241 239 235 231 230 231 232 235 238 238 238 238 236 233 227 221 225 234 233 226 217 205 199 203 206 199 194 190 183 183 186 182 179 182 186 194 232 297 317 324 329 331 335 340 348 356 359 357 352 348 346 343 338 335 333 331 333 335 332 327 325 326 329 333 336 333 329 332 336
327 322 319 314 304 292 283 279 274 267 263 261 259 258 257 252 249 247 243 236 231 230 230 230 231 233 233 229 227 232 236 234 240 250 241 225 213 204 201 198 193 189 190 188 181 178 178 178 183 193 211 260 303 329 343 350 352 350 356 2 359 359 3 0 348 339 336 335 333 336 337 334 335 339 339 334 331 331 331 328 327 325 321 321 323
313 310 309 310 309 303 292 285 279 272 268 265 262 258 255 253 252 251 245 237 231 230 230 231 232 234 232 229 231 243 251 248 246 244 234 222 211 208 205 196 190 190 188 186 184 182 180 181 187 196 220 299 346 17 25 17 2 351 354 357 352 353 355 347 340 336 334 332 333 334 336 337 339 344 347 345 340 330 323 326 327 326 326 327 327
Height
830 831 832 833 835 836 836 837 838 839 840 841 841 842 842 842 843 843 843 843 843 844 846 846 847 848 849 849 849 849 849 850 850 851 852 852 853 854 855 856 857 858 859 859 860 860 860 860 861 861 861 861 861 861 861 861 861 861 861 861 861 861 861 861 861 860 860 860 859 859 859 859 859 859 859 859 859 859 859 859 859 858 858 857 857
830 831 833 834 835 835 836 837 838 839 840 841 842 842 842 843 843 843 843 843 842 844 846 846 846 848 849 850 850 850 850 850 851 851 852 853 853 854 856 857 858 859 859 859 860 860 860 861 861 862 862 861 862 862 862 862 862 862 862 862 862 862 862 862 861 861 861 860 860 859 859 859 859 859 859 859 859 859 859 859 859 859 859 858 858
831 831 833 834 834 835 836 837 838 839 840 841 842 842 843 843 843 843 843 843 843 844 848 848 847 848 849 850 850 850 850 850 851 851 852 853 854 855 856 857 858 859 859 859 859 860 861 861 861 861 862 861 861 862 862 862 862 862 862 862 862 862 862 862 862 861 861 861 860 860 860 860 860 860 860 860 860 860 860 860 860 860 860 860 859
830 831 832 833 834 835 836 837 838 839 840 841 841 842 842 843 844 844 843 844 844 846 851 850 847 848 849 850 851 851 851 850 851 852 853 854 855 856 857 858 859 859 859 859 859 860 861 861 862 862 862 862 862 862 862 862 863 863 863 863 862 862 862 862 862 862 861 861 861 860 860 860 860 860 860 860 860 860 860 860 860 860 861 861 860
830 831 832 833 833 834 835 836 837 838 839 840 841 841 842 843 844 844 843 844 844 848 852 849 847 849 849 850 851 851 851 851 852 852 853 854 855 857 859 859 858 858 859 860 861 861 861 861 862 862 862 862 862 862 862 862 863 863 863 863 863 863 862 862 862 862 862 861 861 861 861 860 860 860 860 861 861 861 861 861 861 861 861 861 861
830 831 832 832 833 834 835 836 837 838 839 840 840 841 842 842 844 844 844 844 844 850 852 848 848 849 849 850 851 852 852 852 853 853 853 855 856 858 860 859 857 857 859 860 861 861 861 862 862 862 862 863 863 863 863 863 863 863 863 863 863 863 862 862 862 862 862 861 862 861 861 861 861 861 861 861 861 861 862 861 861 861 861 861 862
830 831 832 832 833 834 835 836 836 837 838 839 840 841 841 842 843 844 844 844 845 849 851 849 849 850 850 851 851 852 853 853 853 854 854 855 857 860 860 857 856 858 860 861 861 861 862 862 863 863 863 863 863 863 863 863 863 863 863 863 863 863 862 863 862 862 862 862 862 862 862 862 861 861 861 861 861 862 862 862 862 861 861 861 862
831 831 832 832 833 834 835 836 836 837 837 838 840 841 841 842 843 844 844 844 846 848 850 850 851 851 851 851 851 852 853 853 854 854 855 856 859 861 858 856 858 860 861 861 861 861 862 862 862 863 863 863 863 863 863 863 863 863 863 863 863 863 862 862 862 862 862 862 862 862 862 862 862 861 861 862 862 862 862 862 862 862 861 862 862
830 831 832 832 832 834 835 836 836 836 837 839 840 841 841 842 843 844 844 845 846 847 849 852 852 851 852 852 852 853 853 854 854 855 856 857 860 860 857 857 860 861 861 861 861 861 861 861 862 862 863 863 863 863 863 863 863 862 862 863 862 862 862 862 862 862 862 862 862 862 862 862 862 862 862 862 862 862 862 862 862 862 862 862 862
829 831 832 832 832 833 834 835 836 836 837 839 840 841 841 842 842 844 845 846 847 847 849 853 853 852 853 853 853 853 854 854 855 855 856 857 860 860 858 859 860 860 861 861 861 861 861 861 862 862 863 863 863 863 863 862 862 862 862 862 862 862 862 862 861 862 862 862 862 862 862 862 862 862 862 862 862 862 862 862 862 862 862 861 862
829 831 831 832 832 833 834 834 835 835 836 838 840 841 841 842 842 843 845 846 847 847 851 854 853 853 853 853 854 854 855 855 855 856 857 858 859 859 859 860 860 860 861 861 861 861 861 861 862 862 863 863 863 863 863 863 862 862 862 862 862 862 861 861 861 861 861 861 861 862 862 862 862 862 862 862 862 862 862 862 862 862 862 861 862
829 830 831 831 832 833 834 834 835 835 836 837 839 841 841 841 842 843 844 846 847 849 852 853 852 853 854 854 855 856 856 856 856 856 857 858 858 859 860 860 861 861 861 860 861 861 861 861 862 862 863 863 864 863 863 863 862 862 862 862 861 861 861 861 861 861 861 861 861 861 861 861 862 862 862 862 862 862 862 862 862 862 862 861 861
829 830 831 831 831 832 833 834 835 835 836 837 839 841 841 841 842 843 844 846 848 850 852 852 852 854 855 855 856 856 857 857 857 857 858 858 859 859 860 861 861 861 861 860 860 861 861 861 862 862 863 864 864 863 863 862 862 862 862 862 861 860 860 860 861 861 861 861 860 860 861 861 861 861 861 861 862 862 862 862 862 862 861 861 861
829 830 831 831 831 832 833 834 834 836 837 838 839 840 841 842 842 843 844 845 847 849 851 851 852 853 854 856 857 857 857 857 857 858 858 859 860 860 861 861 862 862 861 861 861 862 862 862 862 863 863 864 864 864 863 863 863 863 862 862 861 861 860 860 860 860 860 860 860 860 860 860 860 860 861 861 861 861 862 862 862 862 861 862 862
830 830 830 830 830 832 833 834 835 836 837 838 839 839 840 841 842 842 844 845 847 849 850 851 852 853 854 856 858 858 859 858 858 858 859 860 861 861 861 862 862 863 862 862 862 862 862 863 863 863 864 864 864 864 863 863 863 863 863 862 861 861 860 860 860 860 860 860 859 859 859 858 859 859 860 860 860 861 861 861 861 862 862 863 863
829 830 830 830 830 831 833 834 834 835 837 838 839 839 840 841 841 842 843 845 847 849 850 851 852 853 854 857 858 859 861 859 858 859 860 861 862 862 862 863 863 864 864 864 864 863 863 863 863 864 864 864 864 864 864 864 864 863 863 863 862 861 860 860 860 860 860 859 859 858 858 857 858 859 858 859 859 860 860 860 861 861 862 862 862
829 830 830 831 831 831 832 833 834 835 836 837 838 839 840 841 841 842 843 844 846 848 850 851 852 853 853 855 857 860 861 859 859 861 861 861 862 863 863 864 864 864 865 865 864 864 863 864 864 865 864 864 865 865 865 864 864 864 863 863 862 862 861 860 860 860 860 859 859 858 858 857 858 859 858 859 859 859 859 859 860 861 861 861 861
829 830 831 831 831 832 832 833 834 835 836 837 838 839 840 840 841 843 843 844 846 847 849 850 852 853 853 853 855 857 857 857 859 862 862 862 863 863 864 865 865 865 865 865 865 865 865 865 865 865 865 865 865 865 865 865 864 864 864 863 863 862 862 861 861 861 860 860 859 858 858 858 858 858 858 858 858 858 858 858 860 861 861 860 860
830 830 831 831 832 832 833 834 834 835 836 837 838 839 840 840 841 843 843 844 845 847 848 849 851 852 853 854 854 854 855 856 858 861 863 864 864 863 865 866 866 866 866 866 866 866 866 866 866 866 866 866 866 866 865 865 865 864 864 864 863 863 863 862 862 862 861 861 860 859 859 859 859 859 858 858 857 857 858 858 859 860 860 860 860
830 831 831 832 832 833 833 834 835 835 836 837 838 839 840 841 841 842 843 844 845 846 847 848 850 851 853 854 855 855 855 856 857 859 861 865 865 865 865 866 866 866 866 866 866 866 866 867 867 867 867 867 867 866 866 866 866 865 865 865 865 864 864 863 863 863 862 862 862 861 860 860 861 861 860 859 859 858 858 859 859 858 859 858 859
831 831 831 832 833 833 834 834 834 835 836 837 838 839 840 841 841 841 842 843 844 846 847 848 849 850 852 853 855 855 856 857 858 858 859 863 866 865 865 866 866 867 867 867 867 868 867 868 868 868 868 868 868 867 867 867 866 866 866 866 866 866 865 865 864 864 863 863 863 863 862 862 862 862 862 861 860 860 859 859 859 859 859 858 858
831 831 832 832 833 834 834 835 834 835 837 838 838 839 840 841 841 842 842 843 844 845 847 848 848 850 851 852 853 854 855 856 858 858 859 861 863 864 865 866 866 867 868 868 868 868 868 869 869 869 869 869 869 868 868 867 867 867 867 867 867 867 866 866 865 865 865 864 864 864 864 864 863 863 863 862 862 861 861 860 860 860 860 859 858
831 831 832 832 833 834 834 835 835 835 837 838 838 839 840 841 841 842 843 844 844 845 846 847 848 849 850 851 852 853 853 855 856 857 858 859 861 864 865 865 867 867 868 869 869 869 869 869 869 869 870 870 869 869 869 868 868 869 869 868 868 868 867 867 867 866 866 865 865 865 865 865 865 864 864 864 863 863 862 862 861 861 861 860 859
831 832 832 833 833 834 835 835 836 837 837 838 839 839 840 841 841 842 844 844 845 845 846 847 847 848 850 851 852 852 853 854 855 856 857 858 860 862 864 865 866 867 869 870 869 869 869 870 870 870 870 870 870 870 870 869 869 870 870 869 869 869 868 868 868 868 867 867 866 866 866 866 866 866 865 865 864 864 863 863 862 862 862 861 860
831 832 833 833 833 834 835 836 837 837 838 838 839 840 840 841 842 843 844 844 845 846 847 847 848 849 850 851 852 853 854 854 854 855 857 858 859 860 862 864 865 867 868 869 870 871 871 870 870 871 871 871 871 871 870 870 870 870 870 870 870 870 869 869 869 868 868 868 867 867 867 867 866 866 866 866 865 865 864 864 863 862 862 862 861
831 832 833 834 834 834 835 836 837 838 839 839 840 841 841 842 843 843 844 845 846 846 847 848 848 849 850 851 852 853 854 854 853 854 856 858 859 859 861 863 865 866 868 869 869 870 871 871 871 871 871 871 871 871 871 871 871 871 870 870 870 870 870 870 869 869 869 869 868 868 867 867 867 867 866 866 865 865 864 864 863 863 862 862 861
831 833 834 834 835 835 836 837 838 839 840 840 841 842 842 843 843 844 845 845 846 846 847 848 849 850 850 851 852 853 854 853 853 853 855 857 858 858 859 863 866 867 868 869 869 870 871 872 872 871 871 872 871 871 871 871 871 871 871 870 870 871 870 870 870 870 870 869 869 869 868 868 868 867 867 866 866 865 864 864 863 862 862 861 861
831 833 834 835 836 836 837 838 840 840 841 842 842 843 843 844 844 845 845 846 846 847 848 849 849 850 851 851 852 853 854 853 853 854 855 856 858 858 859 860 864 867 868 869 869 870 871 871 872 872 872 872 872 871 871 871 871 871 871 871 871 871 871 871 871 870 870 870 870 869 869 869 868 868 867 867 866 865 864 864 863 862 862 861 860
832 833 834 835 837 837 838 840 841 841 842 843 843 844 845 845 845 846 846 846 847 847 848 849 850 850 851 852 853 854 854 854 854 855 856 857 858 859 859 859 861 864 867 869 870 870 871 870 871 872 872 872 871 871 871 871 871 871 871 871 871 871 871 871 871 871 871 870 870 870 870 869 868 868 867 867 866 865 864 864 863 862 861 860 860
833 834 835 836 837 838 839 841 842 843 843 844 845 845 846 846 846 847 847 847 847 848 849 849 850 851 851 852 854 855 855 855 855 856 856 857 857 858 859 859 860 861 863 867 870 870 870 870 870 871 871 871 871 871 871 871 871 871 871 871 871 871 871 871 871 871 871 871 871 870 870 869 868 868 867 867 866 865 865 864 863 862 861 860 859
833 835 836 837 838 839 840 841 842 843 844 845 846 846 847 847 847 848 848 848 849 849 850 851 851 852 853 853 854 855 856 856 856 857 857 858 858 859 860 859 859 860 860 863 867 869 869 869 869 870 871 871 871 871 871 871 870 871 871 871 871 871 871 871 871 871 871 871 870 870 870 869 868 868 867 867 867 866 865 864 863 862 861 860 859
834 835 837 838 839 840 841 842 843 844 845 846 847 847 848 848 848 849 849 850 850 851 852 852 853 854 854 854 855 856 856 857 857 858 858 859 860 860 861 860 860 861 861 862 866 868 869 869 869 870 870 871 871 872 872 871 871 871 871 871 871 871 871 871 871 871 871 870 870 870 869 869 868 868 867 867 867 866 865 864 863 862 861 860 859
835 836 838 838 840 841 842 843 843 845 846 846 847 848 848 849 849 850 850 851 851 852 852 853 854 855 855 855 856 856 857 857 858 859 859 860 860 861 861 861 861 862 862 863 865 867 869 869 869 870 870 871 871 872 872 871 871 871 871 871 871 871 871 871 871 871 871 871 870 870 869 869 869 868 867 867 867 866 865 864 863 862 861 860 859
836 837 838 839 841 842 842 843 844 845 846 847 848 848 849 849 850 850 851 851 852 852 853 854 854 855 855 855 856 856 857 858 858 859 859 860 860 861 861 861 861 862 863 863 865 867 868 869 869 869 870 870 871 871 871 871 871 871 870 870 870 870 871 871 871 871 871 871 870 870 869 869 869 868 867 867 866 865 865 864 863 862 861 861 859
836 838 839 840 841 842 843 844 845 846 846 847 848 848 849 849 850 850 851 852 852 852 853 853 854 854 855 855 856 856 857 858 858 859 860 860 860 860 861 861 861 862 863 863 864 866 867 867 868 869 869 870 870 870 871 871 871 871 870 870 870 871 872 871 871 871 870 870 870 869 869 869 869 868 867 866 865 864 864 863 862 861 861 860 859
836 838 839 840 841 842 843 844 845 846 846 847 848 848 848 849 849 850 851 851 852 852 852 853 853 854 854 855 855 856 857 857 858 859 859 860 860 860 860 861 861 862 862 863 863 865 866 866 867 868 868 869 869 869 870 871 870 870 871 870 870 871 871 871 871 870 870 870 869 869 869 869 868 868 867 866 865 864 863 862 861 860 859 858 858
836 838 839 840 841 842 843 844 845 845 846 847 847 848 848 849 849 849 850 851 851 852 852 853 853 854 854 855 855 855 856 857 857 858 859 859 859 860 860 860 861 861 862 863 863 864 865 866 866 867 867 868 868 869 869 869 869 870 870 870 870 871 871 870 870 870 870 869 869 869 869 868 868 867 866 865 864 863 862 861 860 859 857 857 856
836 837 838 840 840 841 842 843 844 845 846 846 847 847 848 848 849 849 850 851 851 852 852 852 853 854 854 854 855 855 856 856 857 857 858 858 859 860 860 860 860 861 862 863 863 864 864 864 865 866 867 867 868 868 868 868 868 869 869 870 870 870 870 869 869 869 869 869 868 868 868 868 867 866 865 864 863 862 860 859 858 857 856 855 855
835 837 837 839 840 841 842 842 843 844 845 846 846 847 848 848 848 849 849 850 851 851 852 852 853 853 853 854 854 855 855 856 857 857 857 858 859 859 860 860 860 860 861 862 863 863 864 864 864 865 865 866 866 867 867 867 867 867 868 868 868 868 868 868 868 868 868 868 868 868 867 867 867 866 865 863 862 860 859 858 857 856 855 854 853
835 835 836 838 839 840 841 842 842 843 844 845 846 846 847 847 848 848 849 850 850 851 851 852 852 853 853 853 853 854 855 855 856 856 857 857 858 859 859 860 860 860 861 861 862 862 863 863 864 864 864 865 865 865 866 865 865 866 866 866 866 867 866 866 867 866 866 866 866 866 866 866 865 864 863 862 860 859 858 857 856 855 854 853 852
833 834 835 836 837 838 840 841 842 842 843 844 844 845 845 846 846 847 848 849 849 850 850 851 851 851 851 852 852 853 853 854 855 855 856 856 857 857 858 859 859 860 860 861 861 861 862 862 863 863 864 864 864 864 864 864 864 865 865 865 865 865 865 865 866 865 864 864 864 864 864 864 863 862 861 860 859 858 857 856 855 854 853 852 851
832 833 834 835 836 837 838 839 840 840 841 842 842 843 843 844 845 846 846 847 847 847 848 848 849 849 850 850 851 851 852 852 853 854 854 855 855 856 856 857 858 859 859 860 860 860 861 861 862 862 863 863 863 863 863 863 864 864 864 864 864 864 864 864 864 864 863 863 863 862 862 862 861 860 859 859 858 857 856 855 854 853 852 851 850
832 832 833 834 835 836 837 838 839 839 839 840 840 841 841 842 843 844 844 845 845 845 846 846 847 847 848 849 849 850 851 851 852 852 853 853 854 854 855 855 856 858 858 858 859 859 859 860 861 861 862 862 862 862 862 863 863 864 864 864 864 864 864 864 864 863 863 863 862 861 861 861 860 859 858 858 857 856 855 854 854 852 851 850 849
831 832 832 833 834 835 836 837 837 837 838 838 838 839 839 840 841 841 842 843 844 844 844 845 845 846 846 847 848 848 849 849 850 850 851 851 852 853 853 853 854 855 856 856 857 857 858 858 859 860 860 861 861 862 862 862 863 863 863 863 863 863 863 863 863 862 862 862 861 859 859 859 858 857 857 857 856 855 854 853 852 851 850 849 848
830 831 832 832 833 834 835 835 836 835 836 837 837 837 837 838 838 838 839 841 842 843 843 843 844 844 844 845 846 846 847 847 848 848 849 849 850 851 851 852 852 853 853 854 855 855 856 857 858 858 859 859 860 860 861 862 862 862 862 862 862 862 862 862 862 861 861 860 859 857 857 857 856 856 856 855 854 854 853 852 851 850 849 847 846
830 830 831 832 832 833 834 834 834 834 834 835 835 836 836 836 836 837 837 838 839 840 841 841 842 842 842 843 843 844 845 845 846 847 847 847 848 849 850 850 850 850 850 851 852 853 854 855 856 857 857 858 858 859 860 860 861 861 861 861 861 861 861 861 861 860 860 859 858 856 855 855 855 854 854 854 853 852 852 851 850 849 847 846 844
829 829 830 831 831 832 833 833 833 833 833 834 834 835 835 835 835 835 835 836 836 837 838 839 840 841 841 842 842 842 842 843 844 844 845 845 846 847 848 848 849 848 849 849 850 851 853 853 854 855 856 856 857 858 858 859 859 860 860 860 860 860 860 860 859 859 859 858 857 855 854 854 854 853 852 852 851 851 850 849 848 847 846 844 843
829 828 829 829 830 830 831 832 832 831 831 832 832 833 833 834 834 834 834 834 834 834 835 837 839 840 841 842 841 840 840 841 842 842 843 844 844 845 846 847 847 847 847 848 849 850 852 852 853 854 855 856 856 857 858 858 859 859 859 859 859 859 858 858 858 857 857 857 856 855 854 853 853 852 851 850 849 849 848 848 847 846 844 843 842
828 828 828 827 828 829 829 830 830 829 829 830 830 831 831 832 832 832 832 832 832 833 834 834 836 836 837 838 839 839 839 840 841 842 843 844 843 843 844 845 846 846 846 847 848 849 851 852 852 854 854 855 856 857 857 858 858 858 858 858 858 857 857 857 856 856 856 856 855 854 853 852 852 851 849 849 848 847 847 846 845 844 843 842 841
826 826 826 826 826 826 826 827 827 827 827 827 828 828 828 829 829 829 830 830 830 831 831 832 832 833 834 835 836 837 838 838 840 843 844 843 842 841 841 842 843 844 845 846 847 849 850 851 852 853 854 855 855 856 857 857 857 857 857 856 856 856 856 857 857 857 856 856 855 853 852 852 851 850 848 847 846 846 845 844 843 842 842 841 839
825 825 825 825 824 824 824 824 824 824 824 824 825 826 826 826 826 826 827 827 827 828 829 830 830 831 832 833 834 834 835 835 837 840 841 840 839 839 839 839 841 843 844 846 847 848 849 850 851 852 853 854 855 855 856 856 856 856 856 856 856 856 856 856 857 857 856 855 854 852 852 851 850 849 848 846 845 844 843 843 842 841 840 839 838